DELTA 1 R/B, 9063

Orbit data source: Space-Track

DELTA 1 R/B, 9063 is space debris in SSO originally from a launch on Thu, 29 Jul 1976 UTC launched from the Air Force Western Test Range (AFWTR). Debris objects in space refer to the collection of defunct objects orbiting the Earth. Examples of debris include non-operational satellites, rocket bodies, and fragments generated from explosions, collisions, or faulty payload assembly.

Loading next visibility...
Identifier
9063, 1976-077B
Orbit
SSO
Country
Flag of USUS
Related business
Manufacturer
MDAC-HB
Mission
Spacecraft
Bus & Motor
DELTA/TR-201, Unknown motor
Mass
845 kg wet, 845 kg dry
Launch date (UTC)
1976-07-29 (50 years ago)
Launch vehicle
Unknown
Launch site
Air Force Western Test Range (AFWTR)
Object type
Payload
Rocket body
Debris
Shape & HBR
Unknown
Radar Cross Section
Large (>1 m²)

Expand to show TLE details & history
Last TLE update: 13 hours ago

TLE from 13 hours ago
0 DELTA 1 R/B
1 09063U 76077B   26072.99337215 -.00000025  00000-0  13875-3 0  9996
2 09063 102.0399  66.0224 0061183 208.2843 219.2330 12.50505862307206
Epoch: 2026-03-13T23:50Z
TLE epoch observation values (Epoch: 2026-03-13T23:50:27.353Z)
Latitude
64.34435°
Longitude
-129.4367°
Altitude
1,510.564 km
Speed
7.098 km/s
True Right ascension
02h 39m 11s
True Declination
64° 13' 22"
Sunlit
Object was in daylight at epoch
Visualization orbit readout
Latitude
Unknown
Longitude
Unknown
Altitude
Unknown
Speed
Unknown
Apparent Right ascension
Unknown
Apparent Declination
Unknown
Sunlit
N/A
Visualization observer readout
Local Sidereal Time
16:59:26
Azimuth
Unknown
Elevation
Unknown
Doppler factor
Unknown
Orbital elements
Apogee altitude
1,507.899 km
Perigee altitude
1,411.987 km
Semi-major axis
7,838.08 km
Eccentricity
0.00612
Inclination
102.0399°
RAAN
66.0224°
Arg. of periapsis
208.2843°
True anomaly
218.79218°
Mean anomaly
219.233°
Eccentric anomaly
219.01233°
Mean motion
3.12773 °/min
Orbital period
115.1 mins
BSTAR
0.00013875
Loading maneuver chart data...
Computing Atmospheric mass density...
Loading historical data...
Loading historical data...
Loading historical data...
Loading historical data...
Loading historical data...
Loading historical data...
Loading historical data...

Documentation

Showing up to 5 results
|